Location: downtown San Diego
(32.7310°N, 117.1990°W)
Time: 14:39:36
(UTC-07:00)

YAOGAN 6 - Pass Details

Date: 14 June 2018
Orbit: 468 x 505 km, 97.1° (Epoch: 21 August)

Event Time Altitude Azimuth Distance (km) Brightness Sun altitude
Exits shadow 20:58:00 - 187° (S) 2,545 5.9 -11.4°
Reaches altitude 10° 21:00:12 10° 197° (SSW) 1,664 5.1 -11.8°
Maximum altitude 21:03:27 33° 262° (W) 838 4.2 -12.3°
Drops below altitude 10° 21:06:41 10° 328° (NNW) 1,656 6.5 -12.8°
Sets 21:08:53 0° 338° (NNW) 2,533 7.4 -13.2°
